Location: Asheville, NC
(35.6000°N, 82.5500°W)
Time: 01:29:14
(UTC-05:00)

Vanguard 1 Rocket - Pass Details

Date: 13 February 2018
Orbit: 655 x 4222 km, 34.3° (Epoch: 23 February)

Event Time Altitude Azimuth Distance (km) Brightness Sun altitude
Rises 09:16:13 0° 284° (WNW) 7,066 11.4 20.7°
Reaches altitude 10° 09:24:23 10° 265° (W) 5,191 10.9 22.0°
Maximum altitude 09:30:57 15° 237° (WSW) 4,008 10.6 23.1°
Drops below altitude 10° 09:35:58 10° 206° (SSW) 3,747 10.8 23.9°
Sets 09:40:13 0° 183° (S) 4,170 11.3 24.6°
